TimePDT,TemperatureF,Dew PointF,Humidity,Sea Level PressureIn,VisibilityMPH,Wind Direction,Wind SpeedMPH,Gust SpeedMPH,PrecipitationIn,Events,Conditions,WindDirDegrees,DateUTC
12:53 AM,36.0,30.0,79,29.86,10.0,South,6.9,-,N/A,,Mostly Cloudy,180,2012-10-21 07:53:00
1:53 AM,34.0,28.9,82,29.87,10.0,SSE,3.5,-,N/A,,Partly Cloudy,160,2012-10-21 08:53:00
2:53 AM,34.0,28.9,82,29.88,10.0,SSE,6.9,-,N/A,,Mostly Cloudy,160,2012-10-21 09:53:00
3:53 AM,34.0,28.9,82,29.88,10.0,SSE,6.9,-,N/A,,Mostly Cloudy,160,2012-10-21 10:53:00
4:53 AM,32.0,28.9,88,29.89,10.0,SSE,6.9,-,N/A,,Partly Cloudy,160,2012-10-21 11:53:00
5:53 AM,30.9,28.9,92,29.90,10.0,SSE,8.1,-,N/A,,Partly Cloudy,160,2012-10-21 12:53:00
6:53 AM,30.0,28.0,92,29.91,10.0,South,5.8,-,N/A,,Partly Cloudy,170,2012-10-21 13:53:00
7:53 AM,32.0,28.9,88,29.92,10.0,SSE,8.1,-,N/A,,Mostly Cloudy,160,2012-10-21 14:53:00
8:53 AM,34.0,30.0,85,29.93,10.0,SSE,5.8,-,N/A,,Mostly Cloudy,160,2012-10-21 15:53:00
9:53 AM,37.9,32.0,79,29.94,10.0,South,9.2,-,N/A,,Mostly Cloudy,180,2012-10-21 16:53:00
10:50 AM,41.0,32.0,70,29.89,10.0,SSW,9.2,-,N/A,,Mostly Cloudy,200,2012-10-21 17:50:00
10:53 AM,41.0,32.0,70,29.92,10.0,South,6.9,-,N/A,,Mostly Cloudy,190,2012-10-21 17:53:00
11:39 AM,44.6,30.2,57,29.88,10.0,South,11.5,-,N/A,,Mostly Cloudy,190,2012-10-21 18:39:00
11:53 AM,43.0,30.9,62,29.91,10.0,SSW,8.1,-,N/A,,Overcast,200,2012-10-21 18:53:00
12:53 PM,45.0,30.0,56,29.89,10.0,SW,11.5,-,0.00,,Mostly Cloudy,220,2012-10-21 19:53:00
1:53 PM,46.0,28.0,50,29.88,10.0,SSW,11.5,-,N/A,,Overcast,210,2012-10-21 20:53:00
2:53 PM,43.0,32.0,65,29.88,9.0,West,9.2,-,0.01,Rain,Light Rain,280,2012-10-21 21:53:00
3:53 PM,43.0,35.1,74,29.89,9.0,SW,10.4,-,0.01,Rain,Light Rain,220,2012-10-21 22:53:00
4:53 PM,42.1,33.1,70,29.89,7.0,SSE,3.5,-,0.02,,Mostly Cloudy,150,2012-10-21 23:53:00
5:53 PM,41.0,34.0,76,29.89,10.0,ESE,3.5,-,N/A,,Mostly Cloudy,110,2012-10-22 00:53:00
6:53 PM,41.0,33.1,73,29.88,10.0,East,5.8,-,N/A,,Mostly Cloudy,80,2012-10-22 01:53:00
7:53 PM,39.0,33.1,79,29.88,10.0,ENE,8.1,-,N/A,,Mostly Cloudy,70,2012-10-22 02:53:00
8:53 PM,37.0,33.1,86,29.88,10.0,ENE,5.8,-,N/A,,Scattered Clouds,70,2012-10-22 03:53:00
9:53 PM,37.0,33.1,86,29.87,10.0,ENE,10.4,-,N/A,,Scattered Clouds,70,2012-10-22 04:53:00
10:53 PM,35.1,32.0,89,29.87,10.0,NE,11.5,-,N/A,,Partly Cloudy,50,2012-10-22 05:53:00
11:53 PM,34.0,32.0,92,29.86,10.0,NE,5.8,-,N/A,,Partly Cloudy,40,2012-10-22 06:53:00